Location: Hilton Head Island
(32.2163°N, 80.7526°W)
Time: 21:33:56
(UTC-04:00)

Vanguard 1 - Pass Details

Date: 23 February 2026
Orbit: 653 x 3818 km, 34.2° (Epoch: 9 March)

Event Time Altitude Azimuth Distance (km) Brightness Sun altitude
Rises 13:54:49 0° 244° (WSW) 3,603 13.5 44.2°
Reaches altitude 10° 13:56:53 10° 242° (WSW) 2,877 13.3 44.0°
Maximum altitude 14:03:55 75° 158° (SSE) 1,575 12.1 43.2°
Drops below altitude 10° 14:17:21 10° 75° (ENE) 5,221 13.5 41.7°
Sets 14:22:32 0° 75° (ENE) 6,727 14.0 41.1°
